Terug naar catalogus

STARLINK-32274

ActiefCommunicatieVLEO
NORAD 60922·PAYLOAD·🇺🇸 United States

Gelanceerd Aug 31, 2024 vanaf Cape Canaveral Space Force Station

Loading…

Volgende Passages (komende 24 uur)

TLE

VersSource: CelesTrak SupGP

Epoch: Sep 15, 2026, 02:49 UTC

1 60922C 24154V   26258.11784722  .00043001  00000+0  12704-2 0  2581
2 60922  53.1576 122.5961 0001214  76.7487  30.7082 15.34370708    10

Volg STARLINK-32274 in realtime met AllMySat

Download on the App Store